Regional Weather Roundup
Issued by NWS

Home | Current Version | Previous Version | Graphics & Text | Print | Product List | Glossary On
Versions: 1 2 3 4 5 6 7 8 9 10 11 12 13 14 15 16 17 18 19 20 21 22 23 24 25 26 27 28 29 30 31 32 33 34 35 36 37 38 39 40 41 42 43 44 45 46 47 48 49 50
119
ASUS43 KIND 200109
RWRIN

WEATHER ROUNDUP FOR INDIANA
NATIONAL WEATHER SERVICE INDIANAPOLIS IN
800 PM EST SUN FEB 19 2017

NOTE: "FAIR" INDICATES FEW OR NO CLOUDS BELOW 12,000 FEET WITH NO
SIGNIFICANT WEATHER AND/OR OBSTRUCTIONS TO VISIBILITY.

* - STATION DOES NOT REPORT WEATHER SUCH AS PRECIPITATION OR FOG.

+ - STATION NOT QUALITY CONTROLLED BY THE NATIONAL WEATHER SERVICE.
    USE DATA WITH CAUTION...ESPECIALLY DEWPOINT AND RELATIVE
    HUMIDITY OBSERVATIONS.

INZ001>003-010>013-019-020-200200-
NORTHWEST INDIANA

CITY           SKY/WX    TMP DP  RH WIND       PRES   REMARKS
GARY /AIRPORT/ PTCLDY    41  34  75 CALM      30.09R
KNOX *+        CLEAR     48  10  21 SE3       30.08F
LA PORTE +     CLEAR     45  32  60 CALM      30.10S
MICHIGAN CITY+ CLOUDY    46  32  57 CALM      30.10R
MONTICELLO +   CLEAR     52  43  72 E3        30.08S
RENSSELAER +   CLEAR     54  43  66 SE3       30.09S

$$

LMZ046-743>745-200200-
SOUTHERN LAKE MICHIGAN

STATION/POSITION TIME  TEMP    WIND        PRES    WAVE
                       AIR SEA DIR/SP/G            HT
                 (UTC) (F)     (DEG/KT/KT) (MB)    (FT)
BURNS HARBOR     0040   46     100/  4/  6 1019.3R
MICHIGAN CITY    0040   54      90/  2/  2   N/A

$$

INZ004-005-014>016-021>024-200200-
NORTH CENTRAL INDIANA

CITY           SKY/WX    TMP DP  RH WIND       PRES   REMARKS
GOSHEN         CLEAR     47  33  58 CALM      30.10R
LOGANSPORT +   CLEAR     50  43  76 E5        30.10F
PERU/GRISSOM   CLEAR     50  45  81 CALM      30.08F
ROCHESTER +    CLEAR     50  37  62 CALM      30.10F
SOUTH BEND     CLEAR     46  25  43 CALM      30.10S
WARSAW +       CLEAR     46  32  57 CALM      30.11R

$$

INZ006>009-017-018-025>027-200200-
NORTHEAST INDIANA

CITY           SKY/WX    TMP DP  RH WIND       PRES   REMARKS
ANGOLA *+      CLEAR     46  32  57 CALM      30.10S
AUBURN +       CLEAR     48  32  53 CALM      30.11R
FORT WAYNE     PTCLDY    48  34  58 W5        30.11R
HUNTINGTON +   CLEAR     48  34  59 CALM      30.11R
KENDALLVILLE + CLEAR     53  35  50 W3        30.10S

$$

INZ028-029-035-036-043>045-051>053-200200-
WEST CENTRAL INDIANA

CITY           SKY/WX    TMP DP  RH WIND       PRES   REMARKS
GREENCASTLE +  PTCLDY    50  43  76 CALM      30.11R
LAFAYETTE      CLEAR     51  41  68 CALM      30.09R
TERRE HAUTE    CLEAR     53  46  77 SE5       30.10R

$$

INZ030>032-037>040-046>048-054>057-064-065-200200-
CENTRAL INDIANA

CITY           SKY/WX    TMP DP  RH WIND       PRES   REMARKS
CP ATTERBURY + CLEAR     50  45  81 E5        30.11F
COLUMBUS       CLEAR     45  45 100 SE3       30.12S
FRANKFORT +    CLEAR     51  44  76 CALM      30.11S
GREENWOOD *+   PTCLDY    54  47  76 SE5       30.11S
INDIANAPOLIS   PTCLDY    53  44  71 SE7       30.10S
-EAGLE CREEK   CLEAR     56  43  61 S3        30.09S
KOKOMO +       PTCLDY    49  45  86 E3        30.11R
MARION +       CLEAR     50  43  75 CALM      30.12R
MT COMFORT *+  PTCLDY    50  45  81 SE6       30.11F
SHELBYVILLE    CLEAR     47  40  76 SE6       30.11S
ZIONSVILLE +   CLEAR     49  41  74 CALM      30.10F

$$

INZ033-034-041-042-049-050-058-059-200200-
EAST CENTRAL INDIANA

CITY           SKY/WX    TMP DP  RH WIND       PRES   REMARKS
MUNCIE         CLEAR     52  41  66 CALM      30.11R

$$

INZ060-061-067>069-081>083-085>088-200200-
SOUTHWEST INDIANA

CITY           SKY/WX    TMP DP  RH WIND       PRES   REMARKS
EVANSVILLE     CLEAR     50  47  89 CALM      30.12S
HUNTINGBURG *+ CLOUDY    51  48  89 S6        30.13S FOG
WASHINGTON +   CLEAR     49  46  90 S6        30.12R

$$

INZ062-063-066-070>080-084-089>092-200200-
SOUTH CENTRAL AND SOUTHEAST INDIANA

CITY           SKY/WX    TMP DP  RH WIND       PRES   REMARKS
BEDFORD +      CLEAR     54  46  76 S3        30.11
BLOOMINGTON    CLEAR     48  42  80 CALM      30.11R
MADISON *+     CLEAR     46  43  87 CALM      30.14F
NORTH VERNON + CLEAR     54  48  82 SE5       30.13S
SEYMOUR +      PTCLDY    52  46  82 SE7       30.11F

$$





USA.gov is the U.S. government's official web portal to all federal, state and local government web resources and services.